User: anonymous   Login
Location: Hurecourt
(47.9030°N, 6.0653°E)
Time: 09:44:44
(UTC+00:00)
Language:

Cosmos 1743 - Orbit

View from above orbital plane
View from above orbital plane
View from above satellite
View from above satellite

Ground track
Ground track

The orbit data is extracted from the following two-line orbital elements,

1 16719U 86034A   20271.91943413 +.00000970 +00000-0 +49083-4 0  9995
2 16719 082.5497 257.0309 0013734 089.9838 330.1233 15.15745459876956
Epoch (UTC): 27 September 2020 22:03:59
Eccentricity: 0.0013734
inclination: 82.5497°
perigee height: 509 km
apogee height: 528 km
right ascension of ascending node: 257.0309°
argument of perigee: 89.9838°
revolutions per day: 15.15745459
mean anomaly at epoch: 330.1233°
orbit number at epoch: 87695

The dashed part of the orbit path shows where the satellite is in the earth's shadow,  

DLR